Location: Unspecified
(0.0000°N, 0.0000°E)
Time: 23:51:32
(UTC+00:00)

Vanguard 1 - Pass Details

Date: 04 October 2020
Orbit: 649 x 3833 km, 34.3° (Epoch: 28 October)

Event Time Altitude Azimuth Distance (km) Brightness Sun altitude
Rises 07:36:38 0° 250° (WSW) 4,940 13.2 26.9°
Reaches altitude 10° 07:40:57 10° 232° (SW) 4,462 13.1 28.0°
Maximum altitude 07:49:33 19° 190° (S) 4,619 13.6 30.1°
Drops below altitude 10° 08:01:32 10° 151° (SSE) 6,337 14.7 33.1°
Sets 08:10:03 0° 135° (SE) 7,784 15.3 35.2°
